Location: Six Mile Lake
(44.9000°N, 79.7170°W)
Time: 22:10:54
(UTC-04:00)

AAUSAT CUBESAT 2 - Pass Details

Date: 07 July 2022
Orbit: 566 x 580 km, 97.5° (Epoch: 07 August)

Event Time Altitude Azimuth Distance (km) Brightness Sun altitude
Rises 04:53:54 0° 34° (NE) 2,783 ? -7.3°
Reaches altitude 10° 04:57:23 10° 66° (ENE) 1,881 ? -6.8°
Maximum altitude 04:58:58 12° 89° (E) 1,753 ? -6.6°
Drops below altitude 10° 05:00:34 10° 112° (ESE) 1,879 ? -6.4°
Sets 05:04:01 0° 144° (SE) 2,773 ? -6.0°
